• In Germany
  • List of Countries
  • For 7 days
  • Water Temperature
  • Satellite Maps
  • Weather Map
  • Weather Widgets
  • user-avatar
    Login

    Hourly Weather Romanovka

    Today, 21 September, Friday

    Time Temperature Precipitation Wind Pressure Humidity
    00:00 +4°C° 0.8 mm 7 mps 677 mmHg 88%
    01:00 +4°C° 0.8 mm 7 mps 678 mmHg 88%
    02:00 +3°C° 0 mm 6 mps 678 mmHg 88%
    03:00 +3°C° 0.6 mm 6 mps 678 mmHg 89%
    04:00 +3°C° 0.6 mm 6 mps 679 mmHg 89%
    05:00 +2°C° 0.6 mm 5 mps 679 mmHg 90%
    06:00 +2°C° 0.8 mm 5 mps 679 mmHg 90%
    07:00 +2°C° 0.8 mm 5 mps 679 mmHg 90%
    08:00 +2°C° 0.8 mm 5 mps 680 mmHg 89%
    09:00 +2°C° 0.5 mm 5 mps 680 mmHg 89%
    10:00 +3°C° 0.5 mm 5 mps 680 mmHg 88%
    11:00 +3°C° 0.5 mm 5 mps 681 mmHg 87%
    12:00 +3°C° 0.2 mm 6 mps 681 mmHg 86%
    13:00 +3°C° 0.2 mm 6 mps 681 mmHg 84%
    14:00 +3°C° 0 mm 6 mps 681 mmHg 85%
    15:00 +2°C° 0.3 mm 5 mps 682 mmHg 85%
    16:00 +2°C° 0.3 mm 5 mps 682 mmHg 85%
    17:00 +2°C° 0.3 mm 5 mps 682 mmHg 85%
    18:00 +2°C° 0.1 mm 5 mps 683 mmHg 87%
    19:00 +2°C° 0.1 mm 5 mps 683 mmHg 88%
    20:00 +2°C° 0.1 mm 5 mps 684 mmHg 90%
    21:00 +2°C° 0 mm 5 mps 684 mmHg 90%
    22:00 +3°C° 0 mm 4 mps 684 mmHg 90%
    23:00 +3°C° 0 mm 4 mps 685 mmHg 91%

    Tomorrow, 22 September, Saturday

    Time Temperature Precipitation Wind Pressure Humidity
    00:00 +3°C° 0 mm 4 mps 685 mmHg 90%
    01:00 +3°C° 0 mm 4 mps 685 mmHg 90%
    02:00 +2°C° 0 mm 5 mps 685 mmHg 90%
    03:00 +1°C° 0 mm 4 mps 686 mmHg 90%
    04:00 +1°C° 0 mm 4 mps 686 mmHg 89%
    05:00 +1°C° 0 mm 4 mps 686 mmHg 89%
    06:00 +1°C° 0 mm 5 mps 686 mmHg 86%
    07:00 +2°C° 0 mm 5 mps 687 mmHg 83%
    08:00 +2°C° 0 mm 5 mps 687 mmHg 80%
    09:00 +5°C° 0 mm 5 mps 687 mmHg 75%
    10:00 +6°C° 0 mm 5 mps 687 mmHg 71%
    11:00 +7°C° 0 mm 5 mps 687 mmHg 67%
    12:00 +8°C° 0 mm 5 mps 687 mmHg 65%
    13:00 +10°C° 0 mm 4 mps 687 mmHg 63%
    14:00 +10°C° 0 mm 4 mps 687 mmHg 61%
    15:00 +10°C° 0 mm 4 mps 687 mmHg 63%
    16:00 +10°C° 0 mm 3 mps 688 mmHg 66%
    17:00 +9°C° 0 mm 3 mps 688 mmHg 68%
    18:00 +8°C° 0 mm 2 mps 688 mmHg 75%
    19:00 +6°C° 0 mm 2 mps 688 mmHg 83%
    20:00 +5°C° 0 mm 1 mps 688 mmHg 90%
    21:00 +5°C° 0 mm 1 mps 689 mmHg 90%
    22:00 +4°C° 0 mm 1 mps 689 mmHg 91%
    23:00 +3°C° 0 mm 1 mps 689 mmHg 91%

    Day after tomorrow, 23 September, Sunday

    Time Temperature Precipitation Wind Pressure Humidity
    00:00 +3°C° 0 mm 1 mps 689 mmHg 92%
    01:00 +3°C° 0 mm 1 mps 689 mmHg 92%
    02:00 +2°C° 0 mm 1 mps 689 mmHg 92%
    03:00 +2°C° 0 mm 1 mps 689 mmHg 92%
    04:00 +2°C° 0 mm 1 mps 689 mmHg 91%
    05:00 +1°C° 0 mm 1 mps 689 mmHg 91%
    06:00 +2°C° 0 mm 1 mps 689 mmHg 86%
    07:00 +4°C° 0 mm 1 mps 690 mmHg 82%
    08:00 +4°C° 0 mm 0 mps 690 mmHg 77%
    09:00 +7°C° 0 mm 1 mps 690 mmHg 70%
    10:00 +9°C° 0 mm 1 mps 690 mmHg 63%
    11:00 +11°C° 0 mm 1 mps 690 mmHg 57%
    12:00 +12°C° 0 mm 1 mps 690 mmHg 54%
    13:00 +13°C° 0 mm 1 mps 689 mmHg 51%
    14:00 +13°C° 0 mm 1 mps 689 mmHg 48%
    15:00 +13°C° 0 mm 1 mps 688 mmHg 50%
    16:00 +11°C° 0 mm 0 mps 688 mmHg 53%
    17:00 +11°C° 0 mm 0 mps 688 mmHg 56%
    18:00 +9°C° 0 mm 0 mps 688 mmHg 62%
    19:00 +6°C° 0 mm 0 mps 688 mmHg 68%
    20:00 +4°C° 0 mm 0 mps 687 mmHg 74%
    21:00 +4°C° 0 mm 0 mps 688 mmHg 77%
    22:00 +3°C° 0 mm 0 mps 688 mmHg 80%
    23:00 +3°C° 0 mm 0 mps 688 mmHg 82%

    24 September, Monday

    Time Temperature Precipitation Wind Pressure Humidity
    00:00 +2°C° 0 mm 0 mps 688 mmHg 84%
    01:00 +2°C° 0 mm 0 mps 688 mmHg 85%
    02:00 +1°C° 0 mm 0 mps 687 mmHg 87%
    03:00 +1°C° 0 mm 0 mps 687 mmHg 87%
    04:00 +1°C° 0 mm 0 mps 687 mmHg 88%
    05:00 +1°C° 0 mm 0 mps 687 mmHg 89%
    06:00 +2°C° 0 mm 0 mps 687 mmHg 84%
    07:00 +3°C° 0 mm 0 mps 687 mmHg 80%
    08:00 +4°C° 0 mm 0 mps 688 mmHg 75%
    09:00 +6°C° 0 mm 0 mps 688 mmHg 68%
    10:00 +10°C° 0 mm 1 mps 687 mmHg 61%
    11:00 +12°C° 0 mm 1 mps 687 mmHg 54%
    12:00 +12°C° 0 mm 1 mps 687 mmHg 52%
    13:00 +13°C° 0 mm 2 mps 686 mmHg 49%
    14:00 +14°C° 0 mm 2 mps 686 mmHg 46%
    15:00 +13°C° 0 mm 1 mps 686 mmHg 51%
    16:00 +13°C° 0 mm 1 mps 685 mmHg 55%
    17:00 +13°C° 0 mm 1 mps 685 mmHg 59%
    18:00 +10°C° 0 mm 1 mps 685 mmHg 66%
    19:00 +8°C° 0 mm 1 mps 685 mmHg 73%
    20:00 +6°C° 0 mm 1 mps 685 mmHg 80%
    21:00 +5°C° 0 mm 1 mps 685 mmHg 81%
    22:00 +5°C° 0 mm 1 mps 685 mmHg 83%
    23:00 +3°C° 0 mm 0 mps 685 mmHg 84%

    25 September, Tuesday

    Time Temperature Precipitation Wind Pressure Humidity
    00:00 +3°C° 0 mm 0 mps 685 mmHg 86%
    01:00 +3°C° 0 mm 0 mps 685 mmHg 87%
    02:00 +2°C° 0 mm 0 mps 684 mmHg 88%
    03:00 +2°C° 0 mm 0 mps 684 mmHg 89%
    04:00 +2°C° 0 mm 0 mps 684 mmHg 90%
    05:00 +1°C° 0 mm 0 mps 684 mmHg 91%
    06:00 +3°C° 0 mm 0 mps 684 mmHg 87%
    07:00 +4°C° 0 mm 0 mps 685 mmHg 83%
    08:00 +5°C° 0 mm 0 mps 685 mmHg 79%
    09:00 +8°C° 0 mm 1 mps 685 mmHg 72%
    10:00 +10°C° 0 mm 1 mps 685 mmHg 66%
    11:00 +12°C° 0 mm 1 mps 684 mmHg 59%
    12:00 +13°C° 0 mm 2 mps 684 mmHg 55%
    13:00 +14°C° 0 mm 2 mps 684 mmHg 52%
    14:00 +15°C° 0 mm 2 mps 683 mmHg 48%
    15:00 +15°C° 0 mm 2 mps 683 mmHg 52%
    16:00 +14°C° 0 mm 1 mps 683 mmHg 57%
    17:00 +14°C° 0 mm 1 mps 683 mmHg 61%
    18:00 +12°C° 0 mm 1 mps 683 mmHg 69%
    19:00 +10°C° 0 mm 1 mps 683 mmHg 77%
    20:00 +7°C° 0 mm 1 mps 683 mmHg 85%
    21:00 +7°C° 0 mm 1 mps 682 mmHg 87%
    22:00 +7°C° 0 mm 1 mps 682 mmHg 89%
    23:00 +6°C° 0 mm 1 mps 682 mmHg 90%

    26 September, Wednesday

    Time Temperature Precipitation Wind Pressure Humidity
    00:00 +6°C° 0 mm 1 mps 682 mmHg 91%
    01:00 +5°C° 0 mm 1 mps 682 mmHg 92%
    02:00 +5°C° 0 mm 1 mps 682 mmHg 93%
    03:00 +5°C° 0 mm 1 mps 682 mmHg 94%
    04:00 +5°C° 0 mm 1 mps 682 mmHg 94%
    05:00 +4°C° 0 mm 1 mps 682 mmHg 95%
    06:00 +5°C° 0 mm 1 mps 682 mmHg 92%
    07:00 +6°C° 0 mm 1 mps 682 mmHg 90%
    08:00 +7°C° 0 mm 1 mps 682 mmHg 87%
    09:00 +9°C° 0 mm 1 mps 682 mmHg 80%
    10:00 +11°C° 0 mm 1 mps 682 mmHg 73%
    11:00 +13°C° 0 mm 1 mps 682 mmHg 65%
    12:00 +13°C° 0 mm 1 mps 681 mmHg 63%
    13:00 +14°C° 0 mm 1 mps 681 mmHg 60%
    14:00 +15°C° 0 mm 2 mps 681 mmHg 58%
    15:00 +14°C° 0 mm 2 mps 681 mmHg 62%
    16:00 +14°C° 0 mm 2 mps 680 mmHg 67%
    17:00 +13°C° 0 mm 2 mps 680 mmHg 72%
    18:00 +11°C° 0 mm 1 mps 680 mmHg 79%
    19:00 +10°C° 0 mm 1 mps 680 mmHg 86%
    20:00 +8°C° 0 mm 1 mps 680 mmHg 93%
    21:00 +8°C° 0 mm 1 mps 680 mmHg 94%
    22:00 +7°C° 0 mm 1 mps 680 mmHg 95%
    23:00 +6°C° 0 mm 0 mps 680 mmHg 96%
    Show more